Time,TemperatureF,DewpointF,PressureIn,WindDirection,WindDirectionDegrees,WindSpeedMPH,WindSpeedGustMPH,Humidity,HourlyPrecipIn,Conditions,Clouds,dailyrainin,SoftwareType,DateUTC
2013-01-11 07:35:00,50.0,48.1,29.76,SW,220,5.0,5.0,93,0.00,,,0.12,Wunderground v.1.15,2013-01-11 13:35:00,
2013-01-11 07:37:00,49.9,48.0,29.76,SW,232,5.0,5.0,93,0.00,,,0.12,Wunderground v.1.15,2013-01-11 13:37:00,
2013-01-11 07:38:00,49.9,48.2,29.76,WSW,251,5.0,5.0,94,0.00,,,0.12,Wunderground v.1.15,2013-01-11 13:38:00,
2013-01-11 07:39:00,49.9,48.2,29.76,WSW,248,5.0,5.0,94,0.00,,,0.12,Wunderground v.1.15,2013-01-11 13:39:00,
2013-01-11 07:45:00,50.0,48.3,29.76,WSW,238,5.0,5.0,94,0.00,,,0.12,Wunderground v.1.15,2013-01-11 13:45:00,
2013-01-11 07:51:00,50.1,48.2,29.77,WSW,250,6.0,8.0,93,0.00,,,0.12,Wunderground v.1.15,2013-01-11 13:51:00,
2013-01-11 07:56:00,50.2,48.3,29.78,West,263,6.0,6.0,93,0.00,,,0.12,Wunderground v.1.15,2013-01-11 13:56:00,
2013-01-11 08:02:00,50.5,48.6,29.78,West,259,7.0,10.0,93,0.00,,,0.12,Wunderground v.1.15,2013-01-11 14:02:00,
2013-01-11 08:08:00,50.4,48.2,29.79,SW,236,8.0,11.0,92,0.00,,,0.12,Wunderground v.1.15,2013-01-11 14:08:00,
2013-01-11 08:13:00,50.3,48.1,29.79,West,262,8.0,11.0,92,0.00,,,0.12,Wunderground v.1.15,2013-01-11 14:13:00,
2013-01-11 08:19:00,50.3,48.1,29.79,West,259,8.0,16.0,92,0.00,,,0.12,Wunderground v.1.15,2013-01-11 14:19:00,
2013-01-11 08:25:00,50.1,47.9,29.79,SW,235,7.0,8.0,92,0.00,,,0.12,Wunderground v.1.15,2013-01-11 14:25:00,
2013-01-11 08:31:00,49.9,47.7,29.80,WSW,243,7.0,7.0,92,0.00,,,0.12,Wunderground v.1.15,2013-01-11 14:31:00,
2013-01-11 08:36:00,49.7,47.5,29.80,West,261,6.0,9.0,92,0.00,,,0.12,Wunderground v.1.15,2013-01-11 14:36:00,
2013-01-11 08:42:00,49.6,47.4,29.80,WSW,248,6.0,7.0,92,0.00,,,0.12,Wunderground v.1.15,2013-01-11 14:42:00,
2013-01-11 08:48:00,49.4,47.2,29.80,SW,230,6.0,7.0,92,0.00,,,0.12,Wunderground v.1.15,2013-01-11 14:48:00,
2013-01-11 08:53:00,49.2,47.3,29.80,WSW,247,5.0,7.0,93,0.00,,,0.12,Wunderground v.1.15,2013-01-11 14:53:00,
2013-01-11 08:59:00,49.1,47.2,29.81,WSW,246,5.0,7.0,93,0.00,,,0.12,Wunderground v.1.15,2013-01-11 14:59:00,
2013-01-11 09:05:00,49.0,47.1,29.81,SW,230,4.0,7.0,93,0.00,,,0.12,Wunderground v.1.15,2013-01-11 15:05:00,
2013-01-11 09:11:00,48.9,47.0,29.81,SW,215,5.0,6.0,93,0.00,,,0.12,Wunderground v.1.15,2013-01-11 15:11:00,
2013-01-11 09:16:00,48.8,46.9,29.81,SW,223,5.0,6.0,93,0.00,,,0.12,Wunderground v.1.15,2013-01-11 15:16:00,
2013-01-11 09:22:00,48.7,46.8,29.81,WSW,247,4.0,4.0,93,0.00,,,0.12,Wunderground v.1.15,2013-01-11 15:22:00,
2013-01-11 09:28:00,48.6,47.0,29.81,SW,235,3.0,4.0,94,0.00,,,0.12,Wunderground v.1.15,2013-01-11 15:28:00,
2013-01-11 09:33:00,48.6,47.0,29.81,SSW,209,4.0,4.0,94,0.00,,,0.12,Wunderground v.1.15,2013-01-11 15:33:00,
2013-01-11 09:39:00,48.8,47.2,29.81,WSW,237,5.0,6.0,94,0.00,,,0.12,Wunderground v.1.15,2013-01-11 15:39:00,
2013-01-11 09:45:00,48.9,47.2,29.82,WSW,238,5.0,5.0,94,0.00,,,0.12,Wunderground v.1.15,2013-01-11 15:45:00,
2013-01-11 09:50:00,49.0,47.3,29.82,SW,220,5.0,5.0,94,0.00,,,0.12,Wunderground v.1.15,2013-01-11 15:50:00,
2013-01-11 09:56:00,49.0,47.3,29.81,SW,224,5.0,8.0,94,0.00,,,0.12,Wunderground v.1.15,2013-01-11 15:56:00,
2013-01-11 10:02:00,48.9,47.2,29.82,SW,221,6.0,7.0,94,0.00,,,0.12,Wunderground v.1.15,2013-01-11 16:02:00,
2013-01-11 10:08:00,48.9,47.2,29.82,SW,216,6.0,12.0,94,0.00,,,0.12,Wunderground v.1.15,2013-01-11 16:08:00,
2013-01-11 10:13:00,48.8,47.2,29.82,SW,227,7.0,9.0,94,0.00,,,0.12,Wunderground v.1.15,2013-01-11 16:13:00,
2013-01-11 10:19:00,48.9,47.2,29.82,SW,222,7.0,10.0,94,0.00,,,0.12,Wunderground v.1.15,2013-01-11 16:19:00,
2013-01-11 10:24:00,49.1,47.4,29.82,South,190,8.0,9.0,94,0.00,,,0.12,Wunderground v.1.15,2013-01-11 16:24:00,
2013-01-11 10:30:00,49.1,47.4,29.82,South,188,8.0,8.0,94,0.00,,,0.12,Wunderground v.1.15,2013-01-11 16:30:00,
2013-01-11 10:36:00,49.1,47.4,29.82,SSW,198,8.0,11.0,94,0.00,,,0.12,Wunderground v.1.15,2013-01-11 16:36:00,
2013-01-11 10:41:00,49.0,47.3,29.82,SW,221,9.0,9.0,94,0.00,,,0.12,Wunderground v.1.15,2013-01-11 16:41:00,
2013-01-11 10:47:00,48.9,47.2,29.82,SW,216,8.0,11.0,94,0.00,,,0.12,Wunderground v.1.15,2013-01-11 16:47:00,
2013-01-11 10:52:00,48.7,47.1,29.82,SSW,213,8.0,8.0,94,0.00,,,0.12,Wunderground v.1.15,2013-01-11 16:52:00,
2013-01-11 10:58:00,48.6,47.0,29.81,SW,223,8.0,10.0,94,0.00,,,0.12,Wunderground v.1.15,2013-01-11 16:58:00,
2013-01-11 11:04:00,48.5,46.9,29.81,SW,216,8.0,10.0,94,0.00,,,0.12,Wunderground v.1.15,2013-01-11 17:04:00,
2013-01-11 11:09:00,48.5,46.9,29.80,SW,231,8.0,10.0,94,0.00,,,0.12,Wunderground v.1.15,2013-01-11 17:09:00,
2013-01-11 11:15:00,48.5,47.1,29.80,SW,227,7.0,8.0,95,0.00,,,0.12,Wunderground v.1.15,2013-01-11 17:15:00,
2013-01-11 11:20:00,48.6,47.2,29.80,SW,215,6.0,7.0,95,0.00,,,0.12,Wunderground v.1.15,2013-01-11 17:20:00,
2013-01-11 11:26:00,48.8,47.4,29.80,SW,220,7.0,10.0,95,0.00,,,0.12,Wunderground v.1.15,2013-01-11 17:26:00,
2013-01-11 11:32:00,48.9,47.5,29.79,SSW,213,7.0,8.0,95,0.00,,,0.12,Wunderground v.1.15,2013-01-11 17:32:00,
2013-01-11 11:37:00,49.0,47.6,29.79,SW,236,7.0,9.0,95,0.00,,,0.12,Wunderground v.1.15,2013-01-11 17:37:00,
2013-01-11 11:43:00,49.0,47.3,29.79,SW,219,7.0,10.0,94,0.00,,,0.12,Wunderground v.1.15,2013-01-11 17:43:00,
2013-01-11 11:49:00,49.0,47.3,29.79,SSW,203,7.0,13.0,94,0.00,,,0.12,Wunderground v.1.15,2013-01-11 17:49:00,
2013-01-11 11:54:00,49.1,47.4,29.78,SW,229,7.0,9.0,94,0.00,,,0.12,Wunderground v.1.15,2013-01-11 17:54:00,
2013-01-11 11:59:00,49.2,47.5,29.78,SW,234,7.0,9.0,94,0.00,,,0.12,Wunderground v.1.15,2013-01-11 17:59:00,
2013-01-11 12:05:00,49.4,47.5,29.78,SW,215,6.0,8.0,93,0.00,,,0.12,Wunderground v.1.15,2013-01-11 18:05:00,
2013-01-11 12:11:00,49.7,47.8,29.78,North,360,6.0,7.0,93,0.00,,,0.12,Wunderground v.1.15,2013-01-11 18:11:00,
2013-01-11 12:16:00,50.0,48.1,29.79,SW,223,7.0,11.0,93,0.00,,,0.12,Wunderground v.1.15,2013-01-11 18:16:00,
2013-01-11 12:22:00,50.1,47.9,29.78,SW,227,6.0,7.0,92,0.00,,,0.12,Wunderground v.1.15,2013-01-11 18:22:00,
2013-01-11 12:27:00,50.4,48.2,29.78,SW,229,7.0,8.0,92,0.00,,,0.12,Wunderground v.1.15,2013-01-11 18:27:00,
2013-01-11 12:33:00,50.7,48.5,29.78,SW,217,6.0,9.0,92,0.00,,,0.12,Wunderground v.1.15,2013-01-11 18:33:00,
2013-01-11 12:39:00,50.9,48.7,29.78,SW,232,7.0,9.0,92,0.00,,,0.12,Wunderground v.1.15,2013-01-11 18:39:00,
2013-01-11 12:45:00,51.2,48.7,29.78,WSW,238,8.0,9.0,91,0.00,,,0.12,Wunderground v.1.15,2013-01-11 18:45:00,
2013-01-11 12:50:00,51.4,48.9,29.78,SW,219,8.0,11.0,91,0.00,,,0.12,Wunderground v.1.15,2013-01-11 18:50:00,
2013-01-11 12:56:00,51.3,48.5,29.77,SW,221,9.0,11.0,90,0.00,,,0.12,Wunderground v.1.15,2013-01-11 18:56:00,
2013-01-11 13:02:00,51.4,48.9,29.77,South,188,8.0,8.0,91,0.00,,,0.12,Wunderground v.1.15,2013-01-11 19:02:00,
2013-01-11 13:08:00,51.5,49.0,29.76,South,183,7.0,9.0,91,0.00,,,0.12,Wunderground v.1.15,2013-01-11 19:08:00,
2013-01-11 13:13:00,51.6,49.1,29.76,SSW,199,6.0,8.0,91,0.00,,,0.12,Wunderground v.1.15,2013-01-11 19:13:00,
2013-01-11 13:18:00,51.7,49.2,29.76,SSE,166,6.0,8.0,91,0.00,,,0.12,Wunderground v.1.15,2013-01-11 19:18:00,
2013-01-11 13:24:00,51.9,49.4,29.76,SSW,196,6.0,6.0,91,0.00,,,0.12,Wunderground v.1.15,2013-01-11 19:24:00,
2013-01-11 13:30:00,52.1,49.6,29.79,SSW,211,6.0,7.0,91,0.00,,,0.12,Wunderground v.1.15,2013-01-11 19:30:00,
2013-01-11 13:36:00,52.1,49.6,29.79,South,175,7.0,10.0,91,0.00,,,0.12,Wunderground v.1.15,2013-01-11 19:36:00,
2013-01-11 13:41:00,52.2,49.7,29.78,South,169,7.0,7.0,91,0.00,,,0.12,Wunderground v.1.15,2013-01-11 19:41:00,
2013-01-11 13:47:00,52.3,49.5,29.77,South,171,6.0,7.0,90,0.00,,,0.12,Wunderground v.1.15,2013-01-11 19:47:00,
2013-01-11 13:53:00,52.5,49.7,29.77,South,182,6.0,6.0,90,0.00,,,0.12,Wunderground v.1.15,2013-01-11 19:53:00,
2013-01-11 13:58:00,52.6,49.8,29.77,South,171,5.0,7.0,90,0.00,,,0.12,Wunderground v.1.15,2013-01-11 19:58:00,
2013-01-11 14:04:00,52.7,49.8,29.77,SSW,213,5.0,8.0,90,0.00,,,0.12,Wunderground v.1.15,2013-01-11 20:04:00,
2013-01-11 14:09:00,52.7,49.8,29.77,SSW,211,6.0,8.0,90,0.00,,,0.12,Wunderground v.1.15,2013-01-11 20:09:00,
2013-01-11 14:14:00,52.9,50.0,29.76,SSW,192,6.0,7.0,90,0.00,,,0.12,Wunderground v.1.15,2013-01-11 20:14:00,
2013-01-11 14:20:00,53.4,50.2,29.77,SSW,201,5.0,5.0,89,0.00,,,0.12,Wunderground v.1.15,2013-01-11 20:20:00,
2013-01-11 14:26:00,53.5,49.7,29.76,SSW,212,6.0,7.0,87,0.00,,,0.12,Wunderground v.1.15,2013-01-11 20:26:00,
2013-01-11 14:31:00,53.4,49.6,29.77,SW,217,7.0,13.0,87,0.00,,,0.12,Wunderground v.1.15,2013-01-11 20:31:00,
2013-01-11 14:37:00,53.2,50.0,29.78,SSE,167,8.0,13.0,89,0.00,,,0.12,Wunderground v.1.15,2013-01-11 20:37:00,
2013-01-11 14:43:00,53.1,49.6,29.77,SSW,210,7.0,11.0,88,0.00,,,0.12,Wunderground v.1.15,2013-01-11 20:43:00,
2013-01-11 14:49:00,53.1,49.6,29.77,South,172,7.0,11.0,88,0.00,,,0.12,Wunderground v.1.15,2013-01-11 20:49:00,
2013-01-11 14:55:00,53.1,49.9,29.78,SSW,198,7.0,9.0,89,0.00,,,0.12,Wunderground v.1.15,2013-01-11 20:55:00,
2013-01-11 15:00:00,53.0,49.8,29.78,SSW,206,6.0,6.0,89,0.00,,,0.12,Wunderground v.1.15,2013-01-11 21:00:00,
2013-01-11 15:06:00,53.0,49.8,29.77,South,180,5.0,6.0,89,0.00,,,0.12,Wunderground v.1.15,2013-01-11 21:06:00,
2013-01-11 15:12:00,53.0,50.1,29.77,South,180,5.0,9.0,90,0.00,,,0.12,Wunderground v.1.15,2013-01-11 21:12:00,
2013-01-11 15:17:00,53.1,49.9,29.77,South,169,6.0,9.0,89,0.00,,,0.12,Wunderground v.1.15,2013-01-11 21:17:00,
2013-01-11 15:23:00,53.3,50.1,29.76,SSE,152,6.0,8.0,89,0.00,,,0.12,Wunderground v.1.15,2013-01-11 21:23:00,
2013-01-11 15:29:00,53.3,50.1,29.76,South,189,6.0,8.0,89,0.00,,,0.12,Wunderground v.1.15,2013-01-11 21:29:00,
2013-01-11 15:35:00,53.6,50.1,29.76,SSW,193,6.0,8.0,88,0.00,,,0.12,Wunderground v.1.15,2013-01-11 21:35:00,
2013-01-11 15:40:00,53.9,50.4,29.76,SSE,155,6.0,7.0,88,0.00,,,0.12,Wunderground v.1.15,2013-01-11 21:40:00,
2013-01-11 15:46:00,54.2,50.7,29.76,SSW,195,7.0,9.0,88,0.00,,,0.12,Wunderground v.1.15,2013-01-11 21:46:00,
2013-01-11 15:52:00,54.2,50.7,29.76,South,180,7.0,9.0,88,0.00,,,0.12,Wunderground v.1.15,2013-01-11 21:52:00,
2013-01-11 15:58:00,54.1,50.6,29.75,SSW,196,9.0,13.0,88,0.00,,,0.12,Wunderground v.1.15,2013-01-11 21:58:00,
2013-01-11 16:04:00,53.9,50.4,29.75,South,182,9.0,12.0,88,0.00,,,0.12,Wunderground v.1.15,2013-01-11 22:04:00,
2013-01-11 16:10:00,53.7,50.2,29.75,SSE,168,8.0,11.0,88,0.00,,,0.12,Wunderground v.1.15,2013-01-11 22:10:00,
2013-01-11 16:15:00,53.5,50.3,29.75,SSE,155,8.0,11.0,89,0.00,,,0.12,Wunderground v.1.15,2013-01-11 22:15:00,
2013-01-11 16:21:00,53.3,50.1,29.75,South,174,8.0,12.0,89,0.00,,,0.12,Wunderground v.1.15,2013-01-11 22:21:00,
2013-01-11 16:27:00,53.0,49.8,29.75,SSE,159,8.0,12.0,89,0.00,,,0.12,Wunderground v.1.15,2013-01-11 22:27:00,
2013-01-11 16:32:00,52.7,49.5,29.75,SSE,158,9.0,11.0,89,0.00,,,0.12,Wunderground v.1.15,2013-01-11 22:32:00,
2013-01-11 16:38:00,52.6,49.4,29.74,SSE,155,9.0,12.0,89,0.00,,,0.12,Wunderground v.1.15,2013-01-11 22:38:00,
2013-01-11 16:44:00,52.4,49.3,29.75,SSW,198,8.0,11.0,89,0.00,,,0.12,Wunderground v.1.15,2013-01-11 22:44:00,
2013-01-11 16:49:00,52.3,49.2,29.75,South,183,7.0,11.0,89,0.00,,,0.12,Wunderground v.1.15,2013-01-11 22:49:00,